{"data":{"norad_id":57380,"epoch":"2026-09-20T12:33:20.476224Z","epoch_age_seconds":122331,"freshness":"FRESH","line1":"1 57380U 23099BE  26263.52315366 -.00000381  00000+0 -43176-5 0  9995","line2":"2 57380  43.0035 192.1881 0001119 272.2818  87.7905 15.27574473177064","mean_motion":15.27574473,"eccentricity":0.0001119,"inclination_deg":43.0035,"raan_deg":192.1881,"arg_perigee_deg":272.2818,"mean_anomaly_deg":87.7905,"bstar":-4.3176e-6,"rev_number":17706,"period_min":94.267089785285,"perigee_km":482.2978773398,"apogee_km":483.83341449196,"semimajor_km":6861.2026459159,"source":"CELESTRAK","updated_at":"2026-09-21T09:00:33.622411Z"}}